Regional Weather Roundup
Issued by NWS Grand Forks, ND

Home | Current Version | Previous Version | Text Only | Print | Product List | Glossary Off
Versions: 1 2 3 4 5 6 7 8 9 10 11 12 13 14 15 16 17 18 19 20 21 22 23 24 25 26 27 28 29 30 31 32 33 34 35 36 37 38 39 40 41 42 43 44 45 46 47 48 49 50

000
ASUS43 KFGF 010810
RWRFGF
PRAIRIE TO PINES  WEATHER ROUNDUP
NATIONAL WEATHER SERVICE EASTERN NORTH DAKOTA/GRAND FORKS ND
300 AM CDT MON SEP 01 2014

 **SATELLITE DATA USED TO AUGMENT SKY COVER AT AUTOMATED STATIONS**
 *****  WEATHER ACROSS EASTERN NORTH DAKOTA  *****

CITY           SKY/WX    TMP DP  RH WIND       PRES   REMARKS
GRAND FORKS    CLEAR     53  52  96 W6        29.66S
GRAND FRKS AFB CLEAR     54  54  99 NW6       29.68R
GRAND FRKS NWS   N/A     52 N/A N/A NW3         N/A
DEVILS LAKE    MOCLDY    54  48  82 NW8       29.70S
FARGO          PTCLDY    57  54  89 NW9       29.65F
WAHPETON ARPT  PTSUNNY   55  54  94 NW6       29.68R
$$

 ***** WEATHER ACROSS CENTRAL AND WESTERN NORTH DAKOTA  *****

CITY           SKY/WX    TMP DP  RH WIND       PRES   REMARKS
BISMARCK       PTCLDY    56  54  93 W6        29.78R
MINOT          CLEAR     53  50  89 CALM      29.74S
JAMESTOWN      CLOUDY    58  54  86 W6        29.72S
MINOT AFB      PTCLDY    50  50  99 W7        29.74R
GARRISON         N/A     51  50  96 N6        29.76R
WILLISTON      PTCLDY    53  50  89 W5        29.79F
DICKINSON      CLEAR     53  47  79 W17       29.80R
HETTINGER      PTCLDY    49  45  86 CALM      29.84S
$$

 *****  OTHER AIRPORT OBSERVATIONS IN OUR AREA  *****

CITY           SKY/WX    TMP DP  RH WIND       PRES   REMARKS
WALHALLA       FAIR      54  54 100 CALM      29.68R
GRAFTON AIRPOR FAIR      55  55 100 W6        29.67S
VALLEY CITY AR FAIR      54  54 100 NW8       29.70F
CANDO          FAIR      50  50 100 W3        29.72S
CAVALIER APRT  FAIR      54  54 100 W6        29.67R
GWINNER        SUNNY     61  57  88 W6        29.71S
SHEYENNE NWR     N/A     58  56  92 NW6       29.95
ROLLA          FAIR      48  48 100 S3        29.73S
 ***** THE ABOVE OBSERVATIONS ARE NON NWS ARE NOT QUALITY
       CONTROLLED AND MAY MIS-REPORT RAIN FOR SNOW...
$$

  *****  WEATHER ACROSS NORTHERN MINNESOTA  *****

CITY           SKY/WX    TMP DP  RH WIND       PRES   REMARKS
FLAG ISLAND    CLOUDY    61  57  88 NW14      29.58R
WARROAD        CLOUDY    57  54  88 W7        29.63R
ROSEAU         CLOUDY    61  55  82 NW6       29.63S
HALLOCK        PTCLDY    55  54  94 CALM      29.66R
THF RVR FALLS  CLOUDY    57  55  94 NW13      29.65S
BAUDETTE       CLOUDY    60  57  89 VRB3      29.61R
WASKISH        CLOUDY    61  57  88 W7        29.62S
CROOKSTON      CLEAR     55  54  94 NW6       29.66F
$$
  *****  WEATHER ACROSS CENTRAL AND WEST MINNESOTA  *****

CITY           SKY/WX    TMP DP  RH WIND       PRES   REMARKS
FOSSTON        FOG       50  48  93 CALM      29.65F VSB 1/4
BEMIDJI        CLOUDY    56  56  99 W5        29.63F
PARK RAPIDS    MOCLDY    57  57 100 NW3       29.64F
ELBOW LAKE     FAIR      61  61  99 NW6       29.67R FOG
WADENA         MOCLDY    61  59  94 CALM      29.64S
DETROIT LAKES  PTCLDY    59  55  88 NW7       29.66S
MOORHEAD       PTCLDY    59  59 100 NW7       29.66S
FERGUS FALLS   MOCLDY    59  59 100 CALM      29.67R FOG
MORRIS MN      CLOUDY    63  63 100 SW5       29.67R
STAPLES        CLOUDY    63  61  94 NW5       29.63S
$$
  *****  WEATHER ELSEWHERE ACROSS MINNESOTA  *****

CITY           SKY/WX    TMP DP  RH WIND       PRES   REMARKS
DULUTH         LGT RAIN  64  62  93 W5        29.59F
INTRNTL FALLS  CLOUDY    60  58  92 W6        29.58S
ELY            LGT RAIN  63  63 100 W3        29.59R
CLOQUET        LGT RAIN  64  63  94 W3        29.60S
WHEATON        CLOUDY    59  57  94 CALM      29.70R
BRAINERD       CLOUDY    65  63  93 NW6       29.62F
HIBBING        CLOUDY    64  62  93 W3        29.60F
ALEXANDRIA     CLOUDY    64  63  96 W6        29.67S
SAINT CLOUD    LGT RAIN  68  65  90 W8        29.62S
MINNEAPOLIS    LGT RAIN  66  65  96 S7        29.64S FOG
$$

  *****  WEATHER ACROSS SOUTH DAKOTA  *****

CITY           SKY/WX    TMP DP  RH WIND       PRES   REMARKS
SIOUX FALLS    PTCLDY    63  60  90 NW7       29.71R
BROOKINGS      NOT AVBL
WATERTOWN      CLOUDY    62  60  93 CALM      29.73R
HURON          CLOUDY    61  60  97 W5        29.73R
SISSETON         N/A     62  60  93 NW6       29.69R
ABERDEEN       CLOUDY    60  58  92 W7        29.73R
MITCHELL       LGT RAIN  62  61  96 NW12      29.76R FOG
PIERRE         CLEAR     57  53  86 W6        29.78R
MOBRIDGE       MOCLDY    57  54  89 N5        29.75S
RAPID CITY     PTCLDY    51  47  86 W7        29.90R
$$

  *****  SOME WEATHER IN NEARBY STATES *****

CITY           SKY/WX    TMP DP  RH WIND       PRES   REMARKS
GLASGOW MT     PTCLDY    52  48  86 W3        29.83R
GREAT FALLS MT PTCLDY    49  40  71 SW12      29.93R
CHEYENNE WY    CLEAR     45  41  86 SW6       30.07S
SCOTTSBLUFF NE CLEAR     50  48  93 NW3       29.99R
OMAHA NE       CLOUDY    69  64  84 S10       29.70F
DES MOINES IA  CLOUDY    69  64  84 S8        29.73R
DAVENPORT IA   TSTM      66  63  90 NW14      29.84R
CHICAGO IL     PTCLDY    74  68  81 S10       29.83F
EAU CLAIRE WI  CLOUDY    66  65  96 SW12      29.65S
LA CROSSE WI   LGT RAIN  67  64  90 SE26G32   29.60F
$$

  *****  SOME NATIONAL WEATHER *****

CITY           SKY/WX    TMP DP  RH WIND       PRES   REMARKS
LA GUARDIA NY  CLOUDY    76  70  82 SW7       29.97F
RALEIGH NC     PTCLDY    75  71  87 SW6       30.08S
ATLANTA GA     MOCLDY    75  70  84 SW3       30.10F
NEW ORLEANS LA PTCLDY    82  76  81 SE7       30.00F
OKLAHOMA CITY  PTCLDY    81  69  67 S20G30    29.79S
ALBUQUERQUE NM CLEAR     78  37  22 W10       30.06R
SALT LAKE CITY CLEAR     58  39  49 SE7       30.00R
LOS ANGELES CA MOCLDY    71  65  81 E12       29.81S
BOISE ID       CLEAR     57  39  51 SE5       30.00R
SEATTLE WA     MOCLDY    59  54  83 S3        30.08R
$$

*** WEATHER ACROSS MANITOBA...SASKATCHEWAN AND ONTARIO ***
                ***ONTARIO***

CITY           SKY/WX    TMP DP  RH WIND       PRES   REMARKS
GERALDTON      TSTM      59  57  94 S8        29.64
THUNDER BAY    CLOUDY    61  61 100 VRB2      29.59S
SIOUX LOOKOUT  CLOUDY    63  61  94 SW7       29.51R
TORONTO        CLEAR     64  61  88 W3        29.97R
BIG TROUT LK   CLOUDY    57  54  88 E5        29.55F FOG
PICKLE LAKE    NOT AVBL
DRYDEN         CLOUDY    61  59  94 W12       29.53R
KENORA         DRIZZLE   59  57  94 NW7       29.58R
$$
                *** MANITOBA***

CITY           SKY/WX    TMP DP  RH WIND       PRES   REMARKS
BRANDON        PTCLDY    50  48  93 SW3       29.70R
DAUPHIN        CLEAR     54  50  87 W8        29.65S
ISLAND LAKE    CLOUDY    57  57 100 CALM      29.54F
PILOT MOUND      N/A     50  50 100 W5          N/A
THE PAS        PTCLDY    55  50  82 W8        29.58S
THOMPSON       NOT AVBL
WINNIPEG       FOG       55  54  94 W7        29.65S VSB 3/8
LYNN LAKE      CLEAR     48  45  87 MISG      29.57R
CHURCHILL      LGT RAIN  52  52 100 SE6       29.50S FOG
GILLAM         CLOUDY    54  54 100 CALM      29.53R
$$
                ***SASKATCHEWAN***

CITY           SKY/WX    TMP DP  RH WIND       PRES   REMARKS
ESTEVAN        MOCLDY    52  50  93 NW5       29.76S
KINDERSLEY     CLEAR     45  41  87 W3        29.80S
LLOYDMINSTER   CLEAR     41  39  93 W8        29.75S
PRINCE ALBERT  MOCLDY    46  46 100 W5        29.66S
REGINA         PTCLDY    50  48  93 NE7       29.76S
YORKTON        CLEAR     52  46  82 W8        29.70R
N. BATTLEFORD  MOCLDY    45  41  87 SW3       29.76S
LA RONGE       CLOUDY    52  48  87 W5        29.64R
SASKATOON      CLEAR     45  43  93 W8        29.74S
SWIFT CURRENT  CLEAR     45  41  87 SW10      29.82R
$$
NOTE: THESE ARE AUTOMATED STATIONS WITH LIMITED QUALITY CONTROL
      "FAIR" INDICATES FEW OR NO CLOUDS BELOW 12,000 FEET WITH NO
      SIGNIFICANT WEATHER AND/OR OBSTRUCTIONS TO VISIBILITY.
      SKY/WX - SKY CONDITION AND SIGNIFICANT WEATHER.
      TMP - AIR TEMPERATURE.    DP   - DEWPOINT TEMPERATURE.
      RH  - RELATIVE HUMIDITY.  PRES - PRESSURE.
      HX  - HEAT INDEX.         WCI  - WIND CHILL INDEX.
$


USA.gov is the U.S. government's official web portal to all federal, state and local government web resources and services.